This is the latest recevied weather packets stored in our database for station/object KI7MOQ. If no packets are shown the sender has not sent any weather packets the latest 10 day(s).
| Time | Temp. | Humidity | Pressure | Rain* | Wind** | Luminosity | Snow |
|---|---|---|---|---|---|---|---|
| 1777606006 | 22.78° C | 33% | 1016.4 hPa | 0 mm | - | 0 W/m² | - |
| 1777605703 | 22.78° C | 32% | 1016.2 hPa | 0 mm | - | 0 W/m² | - |
| 1777605402 | 23.33° C | 31% | 1016.3 hPa | 0 mm | - | 1 W/m² | - |
| 1777605098 | 23.89° C | 31% | 1016.3 hPa | 0 mm | - | 1 W/m² | - |
| 1777604794 | 23.89° C | 30% | 1016.1 hPa | 0 mm | - | 2 W/m² | - |
| 1777604491 | 24.44° C | 29% | 1016.2 hPa | 0 mm | - | 2 W/m² | - |
| 1777604191 | 25° C | 29% | 1016.1 hPa | 0 mm | - | 3 W/m² | - |
| 1777603887 | 25° C | 28% | 1016.3 hPa | 0 mm | - | 4 W/m² | - |
| 1777603584 | 25° C | 28% | 1016.3 hPa | 0 mm | - | 4 W/m² | - |
| 1777603280 | 25.56° C | 28% | 1016.3 hPa | 0 mm | - | 5 W/m² | - |
| 1777602975 | 25.56° C | 28% | 1016.2 hPa | 0 mm | - | 6 W/m² | - |
| 1777602670 | 25.56° C | 28% | 1015.9 hPa | 0 mm | - | 6 W/m² | - |
| 1777602365 | 25.56° C | 27% | 1016.1 hPa | 0 mm | - | 7 W/m² | - |
| 1777602062 | 26.11° C | 28% | 1016.2 hPa | 0 mm | - | 9 W/m² | - |
| 1777601762 | 26.11° C | 28% | 1016.2 hPa | 0 mm | - | 10 W/m² | - |
| 1777601458 | 26.11° C | 28% | 1016.1 hPa | 0 mm | - | 10 W/m² | - |
| 1777601154 | 26.11° C | 28% | 1016.3 hPa | 0 mm | - | 11 W/m² | - |
| 1777600851 | 26.11° C | 29% | 1016.3 hPa | 0 mm | - | 39 W/m² | - |
| 1777600547 | 26.11° C | 29% | 1016.3 hPa | 0 mm | - | 12 W/m² | - |
| 1777600243 | 26.11° C | 28% | 1016.3 hPa | 0 mm | - | 22 W/m² | - |
| 1777599939 | 26.11° C | 28% | 1016.4 hPa | 0 mm | - | 14 W/m² | - |
| 1777599636 | 26.11° C | 27% | 1016.4 hPa | 0 mm | - | 14 W/m² | - |
| 1777599332 | 26.11° C | 29% | 1016.2 hPa | 0 mm | - | 14 W/m² | - |
| 1777599029 | 26.11° C | 28% | 1016.2 hPa | 0 mm | - | 15 W/m² | - |
| 1777598726 | 26.67° C | 27% | 1016.4 hPa | 0 mm | - | 15 W/m² | - |
* Rain latest hour (hover to see other rain measurements)
** Current wind speed in m/s (hover to see current wind gust speed)